LiveATC.Net - Listen to live air traffic control over the Internet!


ICAO: 1G3  IATA: 1G3   Airport: Kent State University Airport
City: Kent   State/Province: Ohio
Country: United States   Continent: North America
KAKR METAR Weather: KAKR 231954Z AUTO 10007KT 10SM CLR 23/07 A2976 RMK AO2 SLP074 T02330067 TSNO
1G3 Flight Activity (FlightAware)
1G3 Airport Info   (AirNav) (iFlightPlanner)
1G3 VFR Sectional Chart   (iFlightPlanner) 
1G3 IFR Low Chart   (iFlightPlanner) 
1G3 CTAF
Feed Status: DOWN
Last heard on: 2017-05-23 20:04:03 (0 days 0 hours 32 minutes ago)
1G3 CTAF Audio Archives
FacilityFrequency
Kent CTAF122.725


NOTICE

Unauthorized use prohibited. See LiveATC.net Terms of Service


Find LiveATC Audio Streams


Airport/ARTCC Code

Frequency Search
(e.g., 124.400, 128.75)
Site-wide search
 


Browse LiveATC Feeds
LiveATC Coverage Map
Top 50 LiveATC Feeds
Bad Weather Areas

LiveATC FAQ
Offer a LiveATC Feed
Contact LiveATC.net
Press Inquiries

LiveATC on iPhone
LiveATC on Android

Windows Phone
Windows 8/10

LiveATC Mobile
(Mobile browser)

ATC Audio Archives
Interesting Recordings

LiveATC Forums


Home Page
About LiveATC.net
Make a Donation
LiveATC Store

Terms of Use
Privacy Policy

Canadian Air Freqs

AIRMETs/SIGMETs

FAA Airport Status
Nat'l Airspace Status
Arrival Demand Charts


Server Software By:
Icecast.org
Liquidsoap